When you browse on this site, cookies collect data to enhance your experience and personalize the content and advertising you see.
Visit our Privacy Policy to learn more. By continuing to use the site, you agree to this use of cookies and data.

Hourly Weather Verhnezundov

Today, 28 September, Monday

Time Temperature Precipitation Wind Pressure Humidity
00:00 +13°C° 0 mm 9 mps 756 mmHg 52%
01:00 +13°C° 0 mm 8 mps 756 mmHg 53%
02:00 +13°C° 0 mm 8 mps 756 mmHg 54%
03:00 +13°C° 0 mm 6 mps 756 mmHg 56%
04:00 +13°C° 0 mm 6 mps 757 mmHg 55%
05:00 +13°C° 0 mm 6 mps 757 mmHg 55%
06:00 +12°C° 0 mm 7 mps 757 mmHg 55%
07:00 +14°C° 0 mm 7 mps 757 mmHg 52%
08:00 +15°C° 0 mm 8 mps 757 mmHg 49%
09:00 +17°C° 0 mm 9 mps 757 mmHg 46%
10:00 +18°C° 0 mm 9 mps 757 mmHg 42%
11:00 +21°C° 0 mm 9 mps 757 mmHg 38%
12:00 +23°C° 0 mm 9 mps 757 mmHg 34%
13:00 +23°C° 0 mm 9 mps 757 mmHg 33%
14:00 +24°C° 0 mm 9 mps 757 mmHg 31%
15:00 +26°C° 0 mm 9 mps 757 mmHg 30%
16:00 +23°C° 0 mm 8 mps 757 mmHg 33%
17:00 +22°C° 0 mm 7 mps 757 mmHg 35%
18:00 +20°C° 0 mm 7 mps 757 mmHg 37%
19:00 +18°C° 0 mm 7 mps 757 mmHg 40%
20:00 +17°C° 0 mm 7 mps 757 mmHg 42%
21:00 +16°C° 0 mm 8 mps 757 mmHg 45%
22:00 +15°C° 0 mm 7 mps 757 mmHg 49%
23:00 +14°C° 0 mm 7 mps 757 mmHg 53%

Tomorrow, 29 September, Tuesday

Time Temperature Precipitation Wind Pressure Humidity
00:00 +12°C° 0 mm 7 mps 757 mmHg 58%
01:00 +11°C° 0 mm 7 mps 757 mmHg 61%
02:00 +11°C° 0 mm 7 mps 757 mmHg 63%
03:00 +10°C° 0 mm 7 mps 757 mmHg 66%
04:00 +10°C° 0 mm 7 mps 757 mmHg 68%
05:00 +10°C° 0 mm 7 mps 757 mmHg 70%
06:00 +10°C° 0 mm 7 mps 757 mmHg 72%
07:00 +12°C° 0 mm 7 mps 757 mmHg 63%
08:00 +15°C° 0 mm 8 mps 757 mmHg 55%
09:00 +17°C° 0 mm 9 mps 757 mmHg 46%
10:00 +18°C° 0 mm 9 mps 756 mmHg 41%
11:00 +21°C° 0 mm 9 mps 755 mmHg 37%
12:00 +23°C° 0 mm 10 mps 755 mmHg 32%
13:00 +23°C° 0 mm 10 mps 755 mmHg 29%
14:00 +24°C° 0 mm 10 mps 754 mmHg 27%
15:00 +26°C° 0 mm 10 mps 754 mmHg 25%
16:00 +23°C° 0 mm 9 mps 753 mmHg 28%
17:00 +22°C° 0 mm 8 mps 753 mmHg 31%
18:00 +21°C° 0 mm 7 mps 753 mmHg 34%
19:00 +20°C° 0 mm 8 mps 753 mmHg 37%
20:00 +18°C° 0 mm 9 mps 753 mmHg 41%
21:00 +17°C° 0 mm 9 mps 753 mmHg 44%
22:00 +16°C° 0 mm 9 mps 752 mmHg 46%
23:00 +15°C° 0 mm 9 mps 752 mmHg 47%

Day after tomorrow, 30 September, Wednesday

Time Temperature Precipitation Wind Pressure Humidity
00:00 +13°C° 0 mm 9 mps 752 mmHg 49%
01:00 +13°C° 0 mm 9 mps 751 mmHg 51%
02:00 +13°C° 0 mm 9 mps 751 mmHg 53%
03:00 +12°C° 0 mm 8 mps 751 mmHg 55%
04:00 +12°C° 0 mm 8 mps 751 mmHg 55%
05:00 +12°C° 0 mm 9 mps 751 mmHg 55%
06:00 +12°C° 0 mm 9 mps 750 mmHg 54%
07:00 +14°C° 0 mm 10 mps 750 mmHg 50%
08:00 +16°C° 0 mm 11 mps 750 mmHg 45%
09:00 +18°C° 0 mm 12 mps 750 mmHg 40%
10:00 +19°C° 0 mm 12 mps 750 mmHg 36%
11:00 +22°C° 0 mm 12 mps 750 mmHg 32%
12:00 +23°C° 0 mm 13 mps 750 mmHg 28%
13:00 +24°C° 0 mm 13 mps 749 mmHg 27%
14:00 +24°C° 0 mm 13 mps 749 mmHg 25%
15:00 +24°C° 0 mm 13 mps 748 mmHg 24%
16:00 +23°C° 0 mm 12 mps 748 mmHg 27%
17:00 +21°C° 0 mm 12 mps 749 mmHg 30%
18:00 +19°C° 0 mm 11 mps 749 mmHg 34%
19:00 +18°C° 0 mm 11 mps 749 mmHg 36%
20:00 +17°C° 0 mm 10 mps 750 mmHg 39%
21:00 +16°C° 0 mm 10 mps 750 mmHg 41%
22:00 +14°C° 0 mm 10 mps 750 mmHg 44%
23:00 +15°C° 0 mm 9 mps 750 mmHg 46%

1 October, Thursday

Time Temperature Precipitation Wind Pressure Humidity
00:00 +15°C° 0 mm 9 mps 750 mmHg 49%
01:00 +13°C° 0 mm 8 mps 750 mmHg 49%
02:00 +13°C° 0 mm 8 mps 750 mmHg 50%
03:00 +13°C° 0 mm 8 mps 750 mmHg 50%
04:00 +13°C° 0 mm 8 mps 750 mmHg 51%
05:00 +14°C° 0 mm 7 mps 750 mmHg 51%
06:00 +14°C° 0 mm 7 mps 750 mmHg 52%
07:00 +15°C° 0 mm 8 mps 750 mmHg 47%
08:00 +17°C° 0 mm 10 mps 750 mmHg 43%
09:00 +18°C° 0 mm 11 mps 750 mmHg 38%
10:00 +21°C° 0 mm 11 mps 750 mmHg 35%
11:00 +22°C° 0 mm 11 mps 750 mmHg 32%
12:00 +23°C° 0 mm 11 mps 750 mmHg 28%
13:00 +23°C° 0 mm 11 mps 750 mmHg 28%
14:00 +23°C° 0 mm 11 mps 749 mmHg 28%
15:00 +24°C° 0 mm 10 mps 749 mmHg 27%
16:00 +22°C° 0 mm 9 mps 749 mmHg 30%
17:00 +21°C° 0 mm 8 mps 750 mmHg 33%
18:00 +20°C° 0 mm 7 mps 750 mmHg 35%
19:00 +18°C° 0 mm 8 mps 750 mmHg 38%
20:00 +17°C° 0 mm 8 mps 750 mmHg 42%
21:00 +16°C° 0 mm 8 mps 751 mmHg 45%
22:00 +15°C° 0 mm 8 mps 751 mmHg 49%
23:00 +13°C° 0 mm 8 mps 751 mmHg 53%

2 October, Friday

Time Temperature Precipitation Wind Pressure Humidity
00:00 +13°C° 0 mm 8 mps 751 mmHg 58%
01:00 +13°C° 0 mm 8 mps 750 mmHg 57%
02:00 +13°C° 0 mm 8 mps 750 mmHg 57%
03:00 +13°C° 0 mm 8 mps 750 mmHg 56%
04:00 +13°C° 0 mm 8 mps 750 mmHg 56%
05:00 +13°C° 0 mm 8 mps 750 mmHg 56%
06:00 +13°C° 0 mm 8 mps 750 mmHg 56%
07:00 +15°C° 0 mm 8 mps 750 mmHg 52%
08:00 +17°C° 0 mm 9 mps 750 mmHg 48%
09:00 +18°C° 0 mm 9 mps 750 mmHg 44%
10:00 +21°C° 0 mm 10 mps 750 mmHg 40%
11:00 +22°C° 0 mm 10 mps 750 mmHg 35%
12:00 +24°C° 0 mm 10 mps 750 mmHg 30%
13:00 +24°C° 0 mm 10 mps 750 mmHg 30%
14:00 +24°C° 0 mm 10 mps 750 mmHg 29%
15:00 +26°C° 0 mm 10 mps 749 mmHg 29%
16:00 +23°C° 0 mm 9 mps 750 mmHg 31%
17:00 +22°C° 0 mm 8 mps 750 mmHg 33%
18:00 +21°C° 0 mm 8 mps 750 mmHg 36%
19:00 +20°C° 0 mm 8 mps 750 mmHg 39%
20:00 +18°C° 0 mm 8 mps 750 mmHg 43%
21:00 +18°C° 0 mm 8 mps 751 mmHg 46%
22:00 +17°C° 0 mm 7 mps 751 mmHg 49%
23:00 +16°C° 0 mm 7 mps 751 mmHg 53%

3 October, Saturday

Time Temperature Precipitation Wind Pressure Humidity
00:00 +15°C° 0 mm 6 mps 751 mmHg 57%
01:00 +15°C° 0 mm 6 mps 751 mmHg 57%
02:00 +14°C° 0 mm 6 mps 751 mmHg 58%
03:00 +14°C° 0 mm 6 mps 751 mmHg 59%
04:00 +13°C° 0 mm 6 mps 751 mmHg 60%
05:00 +13°C° 0 mm 5 mps 751 mmHg 61%
06:00 +13°C° 0 mm 5 mps 751 mmHg 62%
07:00 +14°C° 0 mm 6 mps 752 mmHg 58%
08:00 +16°C° 0 mm 6 mps 752 mmHg 53%
09:00 +18°C° 0 mm 7 mps 752 mmHg 49%
10:00 +21°C° 0 mm 7 mps 752 mmHg 45%
11:00 +22°C° 0 mm 7 mps 752 mmHg 41%
12:00 +24°C° 0 mm 7 mps 752 mmHg 37%
13:00 +24°C° 0 mm 7 mps 752 mmHg 36%
14:00 +26°C° 0 mm 6 mps 751 mmHg 36%
15:00 +26°C° 0 mm 6 mps 751 mmHg 35%
16:00 +25°C° 0 mm 5 mps 751 mmHg 38%
17:00 +22°C° 0 mm 4 mps 751 mmHg 41%
18:00 +21°C° 0 mm 3 mps 751 mmHg 44%
19:00 +20°C° 0 mm 4 mps 751 mmHg 45%
20:00 +19°C° 0 mm 4 mps 752 mmHg 47%
21:00 +18°C° 0 mm 4 mps 752 mmHg 48%
22:00 +17°C° 0 mm 5 mps 752 mmHg 53%
23:00 +17°C° 0 mm 5 mps 752 mmHg 57%
Show more